EFW36VL EGKK-LGTS

Flight info

Callsign EFW36VL
Flight time 2h 52m
Altitude 35000
Route MIMFO Y312 DVR UL9 KONAN UL607 REMBA M624 DIK M150 KRH DCT UTABA L607 MOMUK DCT UMVEG DCT VEKEN DCT NEMEK DCT TUPUS DCT MEDUX UM867 KOGAT DCT PEP DCT TALAS N130 ALIKO
Aircraft A321/M-SDE3FGHIRWY/LB1

Departure

Time 2026-04-16 08:16
Airport London Gatwick Airport (EGKK)

Arrival

Time 2026-04-16 11:08
Airport Thessaloniki Macedonia International Airport (LGTS)
Time Latitude Longitude Altitude Speed Heading
2026-04-16 07:57 51.15487 -0.16444 199 ft 0 kts 76°
2026-04-16 08:09 51.15483 -0.16465 199 ft 2 kts 69°
2026-04-16 08:09 51.15478 -0.16487 199 ft 2 kts 73°
2026-04-16 08:10 51.15474 -0.16510 199 ft 2 kts 72°
2026-04-16 08:10 51.15469 -0.16533 199 ft 2 kts 72°
2026-04-16 08:10 51.15465 -0.16556 199 ft 2 kts 72°
2026-04-16 08:10 51.15461 -0.16576 199 ft 0 kts 72°
2026-04-16 08:11 51.15459 -0.16585 199 ft 0 kts 76°
2026-04-16 08:13 51.15461 -0.16569 199 ft 2 kts 76°
2026-04-16 08:13 51.15461 -0.16535 199 ft 3 kts 110°
2026-04-16 08:13 51.15436 -0.16509 199 ft 5 kts 166°
2026-04-16 08:14 51.15396 -0.16495 199 ft 6 kts 168°
2026-04-16 08:14 51.15347 -0.16479 199 ft 7 kts 168°
2026-04-16 08:14 51.15300 -0.16506 199 ft 8 kts 246°
2026-04-16 08:14 51.15286 -0.16605 199 ft 9 kts 257°
2026-04-16 08:15 51.15231 -0.16644 199 ft 10 kts 171°
2026-04-16 08:15 51.15164 -0.16625 199 ft 4 kts 179°
2026-04-16 08:15 51.15142 -0.16658 199 ft 5 kts 253°
2026-04-16 08:15 51.15116 -0.16839 199 ft 44 kts 257°
2026-04-16 08:16 51.14993 -0.17731 200 ft 117 kts 257°
2026-04-16 08:16 51.14780 -0.19300 293 ft 164 kts 257°
2026-04-16 08:16 51.14534 -0.21019 1074 ft 157 kts 256°
2026-04-16 08:16 51.14352 -0.22678 1841 ft 154 kts 259°
2026-04-16 08:17 51.14132 -0.24336 2388 ft 156 kts 255°
2026-04-16 08:17 51.13876 -0.26078 2611 ft 170 kts 256°
2026-04-16 08:17 51.13722 -0.28020 2866 ft 185 kts 272°
2026-04-16 08:17 51.14160 -0.30019 3130 ft 205 kts 298°
2026-04-16 08:18 51.15262 -0.31644 3309 ft 234 kts 329°
2026-04-16 08:19 51.20874 -0.16392 7173 ft 297 kts 80°
2026-04-16 08:20 51.21277 -0.13182 7866 ft 300 kts 79°
2026-04-16 08:20 51.21704 -0.09918 8560 ft 303 kts 79°
2026-04-16 08:20 51.22132 -0.06666 9242 ft 305 kts 79°
2026-04-16 08:20 51.22568 -0.03340 9888 ft 308 kts 79°
2026-04-16 08:21 51.23006 0.00009 10494 ft 312 kts 79°
2026-04-16 08:21 51.23452 0.03458 10815 ft 327 kts 79°
2026-04-16 08:21 51.23917 0.07073 11096 ft 342 kts 79°
2026-04-16 08:21 51.24410 0.10899 11375 ft 357 kts 79°
2026-04-16 08:22 51.24920 0.14857 11677 ft 371 kts 79°
2026-04-16 08:22 51.25283 0.18907 12197 ft 375 kts 86°
2026-04-16 08:22 51.25285 0.23072 12788 ft 377 kts 95°
2026-04-16 08:22 51.25014 0.27272 13345 ft 381 kts 98°
2026-04-16 08:23 51.24678 0.31476 13864 ft 385 kts 98°
2026-04-16 08:23 51.24333 0.35703 14397 ft 389 kts 98°
2026-04-16 08:23 51.23991 0.40002 14909 ft 393 kts 98°
2026-04-16 08:23 51.23656 0.44311 15427 ft 397 kts 98°
2026-04-16 08:24 51.23316 0.48724 15893 ft 402 kts 97°
2026-04-16 08:24 51.22975 0.53131 16384 ft 406 kts 97°
2026-04-16 08:24 51.22627 0.57593 16858 ft 409 kts 97°
2026-04-16 08:24 51.22269 0.62163 17291 ft 414 kts 97°
2026-04-16 08:25 51.21914 0.66714 17736 ft 418 kts 98°
2026-04-16 08:25 51.21552 0.71303 18189 ft 422 kts 98°
2026-04-16 08:25 51.21178 0.75998 18652 ft 425 kts 98°
2026-04-16 08:25 51.20809 0.80643 19092 ft 428 kts 98°
2026-04-16 08:26 51.20430 0.85375 19516 ft 431 kts 98°
2026-04-16 08:26 51.20046 0.90150 19964 ft 434 kts 98°
2026-04-16 08:26 51.19661 0.94925 20386 ft 437 kts 98°
2026-04-16 08:26 51.19270 0.99729 20785 ft 441 kts 98°
2026-04-16 08:27 51.18878 1.04525 21203 ft 443 kts 97°
2026-04-16 08:27 51.18475 1.09434 21586 ft 446 kts 98°
2026-04-16 08:27 51.18071 1.14317 21977 ft 449 kts 98°
2026-04-16 08:27 51.17662 1.19260 22349 ft 452 kts 98°
2026-04-16 08:28 51.17249 1.24196 22703 ft 456 kts 98°
2026-04-16 08:28 51.16826 1.29196 23043 ft 459 kts 98°
2026-04-16 08:28 51.16403 1.34234 23429 ft 461 kts 97°
2026-04-16 08:28 51.16085 1.39267 23800 ft 463 kts 94°
2026-04-16 08:29 51.15835 1.44387 24117 ft 467 kts 94°
2026-04-16 08:29 51.15593 1.49574 24477 ft 469 kts 94°
2026-04-16 08:29 51.15351 1.54769 24840 ft 471 kts 94°
2026-04-16 08:29 51.15104 1.59907 25175 ft 473 kts 94°
2026-04-16 08:30 51.14848 1.65205 25483 ft 477 kts 95°
2026-04-16 08:30 51.14587 1.70486 25790 ft 479 kts 95°
2026-04-16 08:30 51.14326 1.75724 26140 ft 480 kts 95°
2026-04-16 08:30 51.14056 1.81072 26442 ft 482 kts 95°
2026-04-16 08:31 51.13784 1.86404 26759 ft 484 kts 95°
2026-04-16 08:31 51.13508 1.91737 27055 ft 486 kts 95°
2026-04-16 08:31 51.13232 1.97028 27321 ft 489 kts 95°
2026-04-16 08:31 51.12949 2.02423 27607 ft 490 kts 95°
2026-04-16 08:32 51.12664 2.07812 27898 ft 492 kts 95°
2026-04-16 08:32 51.12374 2.13206 28176 ft 494 kts 95°
2026-04-16 08:32 51.12083 2.18656 28432 ft 496 kts 95°
2026-04-16 08:32 51.11787 2.24086 28669 ft 498 kts 95°
2026-04-16 08:33 51.11487 2.29580 28911 ft 500 kts 96°
2026-04-16 08:33 51.11180 2.35127 29259 ft 499 kts 96°
2026-04-16 08:33 51.10875 2.40605 29669 ft 497 kts 96°
2026-04-16 08:33 51.10572 2.45995 30008 ft 497 kts 96°
2026-04-16 08:34 51.10258 2.51515 30274 ft 498 kts 96°
2026-04-16 08:34 51.09945 2.56996 30574 ft 498 kts 96°
2026-04-16 08:34 51.09533 2.62454 30848 ft 497 kts 99°
2026-04-16 08:34 51.08907 2.67875 31102 ft 497 kts 104°
2026-04-16 08:35 51.08060 2.73213 31339 ft 496 kts 108°
2026-04-16 08:35 51.07098 2.78520 31601 ft 496 kts 109°
2026-04-16 08:35 51.06127 2.83778 31863 ft 495 kts 109°
2026-04-16 08:35 51.05160 2.89006 32140 ft 495 kts 109°
2026-04-16 08:36 51.04183 2.94291 32383 ft 495 kts 108°
2026-04-16 08:36 51.03223 2.99501 32613 ft 495 kts 108°
2026-04-16 08:36 51.02265 3.04721 32854 ft 495 kts 108°
2026-04-16 08:36 51.01304 3.09933 33084 ft 496 kts 108°
2026-04-16 08:37 51.00338 3.15169 33304 ft 496 kts 108°
2026-04-16 08:37 50.99358 3.20468 33524 ft 497 kts 108°
2026-04-16 08:37 50.98389 3.25691 33713 ft 498 kts 108°
2026-04-16 08:37 50.97416 3.30920 33893 ft 499 kts 108°
2026-04-16 08:38 50.96433 3.36200 34082 ft 499 kts 108°
2026-04-16 08:38 50.95444 3.41488 34238 ft 501 kts 108°
2026-04-16 08:38 50.94450 3.46781 34390 ft 503 kts 108°
2026-04-16 08:38 50.93462 3.52045 34561 ft 504 kts 108°
2026-04-16 08:39 50.92450 3.57410 34749 ft 504 kts 108°
2026-04-16 08:39 50.91448 3.62693 34918 ft 505 kts 107°
2026-04-16 08:39 50.90442 3.67972 35058 ft 505 kts 108°
2026-04-16 08:39 50.89407 3.73338 35158 ft 505 kts 109°
2026-04-16 08:40 50.87362 3.83900 35163 ft 504 kts 108°
2026-04-16 08:40 50.85312 3.94452 35168 ft 503 kts 108°
2026-04-16 08:41 50.83255 4.04982 35162 ft 502 kts 108°
2026-04-16 08:41 50.81183 4.15530 35170 ft 502 kts 108°
2026-04-16 08:42 50.79104 4.26045 35174 ft 502 kts 108°
2026-04-16 08:42 50.77026 4.36513 35178 ft 502 kts 108°
2026-04-16 08:43 50.74929 4.47021 35181 ft 502 kts 108°
2026-04-16 08:43 50.72817 4.57548 35179 ft 503 kts 108°
2026-04-16 08:44 50.70747 4.68062 35180 ft 502 kts 108°
2026-04-16 08:44 50.68689 4.78637 35188 ft 502 kts 110°
2026-04-16 08:45 50.65893 4.88647 35186 ft 499 kts 121°
2026-04-16 08:45 50.62006 4.97609 35185 ft 494 kts 133°
2026-04-16 08:46 50.57319 5.05303 35189 ft 491 kts 140°
2026-04-16 08:46 50.52413 5.12763 35185 ft 492 kts 140°
2026-04-16 08:47 50.47525 5.20237 35186 ft 491 kts 139°
2026-04-16 08:47 50.42638 5.27731 35187 ft 492 kts 139°
2026-04-16 08:48 50.37753 5.35216 35187 ft 493 kts 139°
2026-04-16 08:48 50.32883 5.42658 35188 ft 493 kts 139°
2026-04-16 08:49 50.27961 5.50157 35185 ft 493 kts 139°
2026-04-16 08:49 50.23094 5.57546 35180 ft 493 kts 139°
2026-04-16 08:50 50.18178 5.64995 35178 ft 493 kts 139°
2026-04-16 08:50 50.13299 5.72363 35175 ft 493 kts 140°
2026-04-16 08:51 50.08372 5.79773 35175 ft 494 kts 139°
2026-04-16 08:51 50.03446 5.87162 35177 ft 494 kts 139°
2026-04-16 08:52 49.98506 5.94554 35183 ft 492 kts 140°
2026-04-16 08:52 49.93567 6.01909 35191 ft 492 kts 139°
2026-04-16 08:53 49.88830 6.09473 35187 ft 494 kts 133°
2026-04-16 08:53 49.84689 6.17863 35199 ft 497 kts 125°
2026-04-16 08:54 49.81210 6.27129 35203 ft 498 kts 118°
2026-04-16 08:54 49.78045 6.36623 35205 ft 497 kts 117°
2026-04-16 08:55 49.74865 6.46042 35209 ft 497 kts 118°
2026-04-16 08:55 49.71639 6.55469 35211 ft 496 kts 118°
2026-04-16 08:56 49.68428 6.64811 35208 ft 497 kts 118°
2026-04-16 08:56 49.65180 6.74236 35204 ft 497 kts 118°
2026-04-16 08:57 49.61921 6.83660 35211 ft 497 kts 118°
2026-04-16 08:57 49.58694 6.92966 35208 ft 497 kts 118°
2026-04-16 08:58 49.55442 7.02311 35210 ft 495 kts 118°
2026-04-16 08:58 49.52182 7.11642 35206 ft 494 kts 118°
2026-04-16 08:59 49.48926 7.20921 35211 ft 493 kts 118°
2026-04-16 08:59 49.45675 7.30154 35218 ft 492 kts 118°
2026-04-16 09:00 49.42439 7.39322 35221 ft 490 kts 118°
2026-04-16 09:00 49.39199 7.48463 35222 ft 489 kts 118°
2026-04-16 09:01 49.34312 7.62195 35223 ft 490 kts 118°
2026-04-16 09:02 49.31057 7.71303 35223 ft 489 kts 119°
2026-04-16 09:02 49.27806 7.80357 35227 ft 487 kts 119°
2026-04-16 09:03 49.24558 7.89374 35226 ft 487 kts 119°
2026-04-16 09:03 49.21281 7.98431 35231 ft 486 kts 119°
2026-04-16 09:04 49.18026 8.07403 35231 ft 485 kts 119°
2026-04-16 09:04 49.14755 8.16400 35232 ft 484 kts 119°
2026-04-16 09:05 49.11483 8.25359 35234 ft 483 kts 119°
2026-04-16 09:05 49.08210 8.34276 35234 ft 483 kts 120°
2026-04-16 09:06 49.04924 8.43190 35235 ft 483 kts 120°
2026-04-16 09:06 49.01454 8.51859 35232 ft 481 kts 126°
2026-04-16 09:07 48.97272 8.59769 35229 ft 478 kts 134°
2026-04-16 09:07 48.92480 8.66650 35219 ft 474 kts 143°
2026-04-16 09:08 48.87370 8.72795 35213 ft 473 kts 144°
2026-04-16 09:08 48.82192 8.78987 35205 ft 472 kts 144°
2026-04-16 09:09 48.77108 8.85080 35201 ft 471 kts 144°
2026-04-16 09:09 48.71972 8.91227 35198 ft 470 kts 144°
2026-04-16 09:10 48.66838 8.97356 35205 ft 470 kts 144°
2026-04-16 09:10 48.61757 9.03408 35209 ft 469 kts 144°
2026-04-16 09:11 48.56599 9.09533 35212 ft 469 kts 144°
2026-04-16 09:11 48.51473 9.15606 35215 ft 468 kts 144°
2026-04-16 09:12 48.46370 9.21637 35214 ft 468 kts 144°
2026-04-16 09:12 48.41258 9.27661 35212 ft 467 kts 144°
2026-04-16 09:13 48.36140 9.33681 35219 ft 466 kts 144°
2026-04-16 09:13 48.31044 9.39659 35217 ft 466 kts 144°
2026-04-16 09:14 48.25965 9.45612 35220 ft 466 kts 144°
2026-04-16 09:14 48.21016 9.51946 35225 ft 467 kts 141°
2026-04-16 09:15 48.16111 9.58299 35230 ft 466 kts 141°
2026-04-16 09:15 48.11195 9.64650 35232 ft 466 kts 141°
2026-04-16 09:16 48.06316 9.70941 35229 ft 464 kts 142°
2026-04-16 09:16 48.01425 9.77226 35232 ft 464 kts 142°
2026-04-16 09:17 47.96546 9.83483 35227 ft 464 kts 142°
2026-04-16 09:17 47.91658 9.89733 35230 ft 463 kts 142°
2026-04-16 09:18 47.87012 9.96350 35230 ft 465 kts 135°
2026-04-16 09:18 47.83041 10.03827 35226 ft 469 kts 126°
2026-04-16 09:19 47.79768 10.12246 35233 ft 471 kts 117°
2026-04-16 09:19 47.76973 10.21015 35231 ft 471 kts 117°
2026-04-16 09:20 47.74194 10.29750 35236 ft 470 kts 117°
2026-04-16 09:20 47.71377 10.38527 35232 ft 469 kts 117°
2026-04-16 09:21 47.68559 10.47253 35233 ft 469 kts 117°
2026-04-16 09:21 47.65754 10.55902 35234 ft 468 kts 117°
2026-04-16 09:22 47.62931 10.64575 35234 ft 468 kts 117°
2026-04-16 09:22 47.60096 10.73261 35241 ft 468 kts 118°
2026-04-16 09:23 47.57293 10.81816 35235 ft 468 kts 118°
2026-04-16 09:23 47.54436 10.90500 35235 ft 467 kts 118°
2026-04-16 09:24 47.51598 10.99103 35233 ft 468 kts 118°
2026-04-16 09:24 47.48754 11.07695 35228 ft 467 kts 118°
2026-04-16 09:25 47.45902 11.16285 35235 ft 468 kts 118°
2026-04-16 09:25 47.43037 11.24887 35246 ft 467 kts 118°
2026-04-16 09:26 47.40174 11.33446 35242 ft 466 kts 118°
2026-04-16 09:26 47.37313 11.41974 35239 ft 466 kts 118°
2026-04-16 09:27 47.34453 11.50477 35246 ft 466 kts 118°
2026-04-16 09:27 47.31574 11.59008 35245 ft 465 kts 118°
2026-04-16 09:28 47.28765 11.67304 35239 ft 465 kts 118°
2026-04-16 09:28 47.25878 11.75803 35210 ft 466 kts 118°
2026-04-16 09:29 47.22974 11.84323 35204 ft 465 kts 118°
2026-04-16 09:29 47.19896 11.92616 35201 ft 464 kts 124°
2026-04-16 09:30 47.16472 12.00641 35196 ft 463 kts 124°
2026-04-16 09:30 47.13052 12.08612 35203 ft 463 kts 124°
2026-04-16 09:31 47.09630 12.16581 35206 ft 463 kts 124°
2026-04-16 09:31 47.06185 12.24588 35202 ft 463 kts 124°
2026-04-16 09:32 47.02742 12.32568 35202 ft 463 kts 124°
2026-04-16 09:32 46.99297 12.40532 35204 ft 463 kts 124°
2026-04-16 09:33 46.95858 12.48455 35228 ft 463 kts 124°
2026-04-16 09:33 46.92414 12.56371 35239 ft 462 kts 123°
2026-04-16 09:34 46.89109 12.63946 35219 ft 462 kts 123°
2026-04-16 09:34 46.85691 12.71758 35191 ft 461 kts 124°
2026-04-16 09:35 46.82229 12.79650 35186 ft 461 kts 124°
2026-04-16 09:35 46.78791 12.87456 35183 ft 461 kts 124°
2026-04-16 09:36 46.75337 12.95289 35213 ft 461 kts 124°
2026-04-16 09:36 46.71972 13.02896 35215 ft 461 kts 124°
2026-04-16 09:37 46.68495 13.10731 35208 ft 462 kts 124°
2026-04-16 09:37 46.64996 13.18597 35201 ft 462 kts 124°
2026-04-16 09:38 46.61515 13.26398 35192 ft 461 kts 123°
2026-04-16 09:38 46.58030 13.34185 35187 ft 461 kts 123°
2026-04-16 09:39 46.54411 13.41822 35180 ft 460 kts 126°
2026-04-16 09:39 46.52542 13.45563 35329 ft 460 kts 126°
2026-04-16 09:39 46.50675 13.49291 35111 ft 459 kts 126°
2026-04-16 09:40 46.46931 13.56762 35262 ft 460 kts 126°
2026-04-16 09:40 46.43162 13.64266 35187 ft 459 kts 126°
2026-04-16 09:41 46.39392 13.71753 35172 ft 459 kts 127°
2026-04-16 09:41 46.35643 13.79179 35171 ft 459 kts 126°
2026-04-16 09:42 46.31873 13.86629 35167 ft 458 kts 126°
2026-04-16 09:42 46.28113 13.94040 35165 ft 457 kts 126°
2026-04-16 09:43 46.24348 14.01440 35164 ft 457 kts 126°
2026-04-16 09:43 46.20609 14.08772 35165 ft 457 kts 126°
2026-04-16 09:44 46.16840 14.16141 35168 ft 456 kts 126°
2026-04-16 09:44 46.13071 14.23490 35168 ft 456 kts 126°
2026-04-16 09:45 46.09323 14.30779 35167 ft 456 kts 126°
2026-04-16 09:45 46.05553 14.38093 35166 ft 455 kts 126°
2026-04-16 09:46 46.01776 14.45401 35165 ft 454 kts 126°
2026-04-16 09:46 45.98021 14.52649 35160 ft 454 kts 126°
2026-04-16 09:47 45.94249 14.59911 35162 ft 455 kts 126°
2026-04-16 09:47 45.90457 14.67190 35160 ft 455 kts 126°
2026-04-16 09:48 45.86730 14.74325 35156 ft 455 kts 126°
2026-04-16 09:48 45.82958 14.81532 35153 ft 455 kts 126°
2026-04-16 09:49 45.79236 14.88626 35149 ft 454 kts 126°
2026-04-16 09:49 45.75449 14.95829 35151 ft 453 kts 126°
2026-04-16 09:50 45.71659 15.03013 35149 ft 452 kts 126°
2026-04-16 09:50 45.68051 15.09837 35148 ft 453 kts 125°
2026-04-16 09:51 45.64257 15.17000 35153 ft 453 kts 125°
2026-04-16 09:51 45.60446 15.24172 35152 ft 452 kts 125°
2026-04-16 09:52 45.56596 15.31233 35154 ft 451 kts 128°
2026-04-16 09:52 45.52569 15.38026 35153 ft 451 kts 128°
2026-04-16 09:53 45.48528 15.44821 35154 ft 450 kts 128°
2026-04-16 09:53 45.44484 15.51605 35153 ft 449 kts 128°
2026-04-16 09:54 45.40432 15.58397 35156 ft 449 kts 128°
2026-04-16 09:54 45.36482 15.64998 35156 ft 448 kts 128°
2026-04-16 09:55 45.32449 15.71722 35161 ft 446 kts 128°
2026-04-16 09:55 45.28423 15.78421 35159 ft 446 kts 128°
2026-04-16 09:56 45.24392 15.85109 35162 ft 445 kts 128°
2026-04-16 09:56 45.20580 15.91625 35164 ft 444 kts 126°
2026-04-16 09:57 45.16771 15.98443 35157 ft 442 kts 126°
2026-04-16 09:57 45.12942 16.05293 35161 ft 442 kts 126°
2026-04-16 09:58 45.09147 16.12065 35160 ft 441 kts 126°
2026-04-16 09:58 45.05331 16.18859 35147 ft 439 kts 126°
2026-04-16 09:59 45.01537 16.25597 35149 ft 438 kts 126°
2026-04-16 09:59 44.97769 16.32271 35144 ft 438 kts 125°
2026-04-16 10:00 44.93959 16.39010 35156 ft 437 kts 125°
2026-04-16 10:00 44.90188 16.45664 35151 ft 438 kts 126°
2026-04-16 10:01 44.84602 16.55490 35140 ft 437 kts 126°
2026-04-16 10:01 44.80902 16.61978 35138 ft 437 kts 126°
2026-04-16 10:02 44.77075 16.68675 35111 ft 437 kts 126°
2026-04-16 10:02 44.73283 16.75295 35131 ft 437 kts 126°
2026-04-16 10:03 44.69511 16.81867 35138 ft 437 kts 126°
2026-04-16 10:03 44.65677 16.88530 35137 ft 437 kts 127°
2026-04-16 10:04 44.61866 16.95137 35138 ft 438 kts 127°
2026-04-16 10:04 44.58033 17.01763 35143 ft 437 kts 127°
2026-04-16 10:05 44.54199 17.08379 35147 ft 437 kts 127°
2026-04-16 10:05 44.50377 17.14961 35147 ft 437 kts 127°
2026-04-16 10:06 44.46522 17.21581 35147 ft 437 kts 127°
2026-04-16 10:06 44.42696 17.28138 35138 ft 437 kts 127°
2026-04-16 10:07 44.38844 17.34721 35138 ft 438 kts 127°
2026-04-16 10:07 44.34991 17.41296 35150 ft 438 kts 127°
2026-04-16 10:08 44.31139 17.47851 35142 ft 438 kts 127°
2026-04-16 10:08 44.27260 17.54437 35148 ft 439 kts 127°
2026-04-16 10:09 44.23394 17.60986 35136 ft 439 kts 127°
2026-04-16 10:09 44.19491 17.67583 35130 ft 439 kts 128°
2026-04-16 10:10 44.15602 17.74142 35141 ft 439 kts 128°
2026-04-16 10:10 44.11697 17.80711 35132 ft 439 kts 128°
2026-04-16 10:11 44.07806 17.87242 35146 ft 440 kts 128°
2026-04-16 10:11 44.03905 17.93778 35127 ft 440 kts 129°
2026-04-16 10:12 43.99984 18.00328 35131 ft 441 kts 129°
2026-04-16 10:12 43.96061 18.06868 35124 ft 441 kts 129°
2026-04-16 10:13 43.92133 18.13401 35131 ft 442 kts 129°
2026-04-16 10:13 43.88207 18.19915 35134 ft 441 kts 129°
2026-04-16 10:14 43.84278 18.26422 35142 ft 441 kts 129°
2026-04-16 10:14 43.80336 18.32936 35152 ft 439 kts 129°
2026-04-16 10:15 43.76432 18.39379 35154 ft 440 kts 130°
2026-04-16 10:15 43.72501 18.45841 35145 ft 440 kts 130°
2026-04-16 10:16 43.68563 18.52303 35150 ft 441 kts 130°
2026-04-16 10:16 43.64607 18.58777 35142 ft 443 kts 130°
2026-04-16 10:17 43.60635 18.65270 35134 ft 443 kts 131°
2026-04-16 10:17 43.56597 18.71851 35144 ft 444 kts 131°
2026-04-16 10:18 43.52635 18.78293 35137 ft 444 kts 131°
2026-04-16 10:18 43.48639 18.84779 35135 ft 444 kts 131°
2026-04-16 10:19 43.44671 18.91204 35137 ft 443 kts 131°
2026-04-16 10:19 43.40665 18.97673 35140 ft 443 kts 131°
2026-04-16 10:20 43.36699 19.04068 35141 ft 443 kts 131°
2026-04-16 10:20 43.32706 19.10491 35144 ft 443 kts 131°
2026-04-16 10:21 43.28718 19.16894 35146 ft 443 kts 131°
2026-04-16 10:21 43.24710 19.23310 35145 ft 443 kts 131°
2026-04-16 10:22 43.20713 19.29698 35148 ft 443 kts 131°
2026-04-16 10:22 43.16705 19.36087 35147 ft 443 kts 131°
2026-04-16 10:23 43.12680 19.42488 35143 ft 443 kts 131°
2026-04-16 10:23 43.08681 19.48836 35142 ft 443 kts 131°
2026-04-16 10:24 43.04645 19.55231 35140 ft 444 kts 131°
2026-04-16 10:24 43.00616 19.61598 35134 ft 444 kts 131°
2026-04-16 10:25 42.96571 19.67979 35132 ft 444 kts 132°
2026-04-16 10:25 42.92530 19.74339 35128 ft 442 kts 132°
2026-04-16 10:26 42.88485 19.80691 35132 ft 442 kts 132°
2026-04-16 10:26 42.84463 19.86992 35135 ft 442 kts 133°
2026-04-16 10:27 42.80438 19.93288 35136 ft 443 kts 132°
2026-04-16 10:27 42.76370 19.99638 35127 ft 444 kts 132°
2026-04-16 10:28 42.72365 20.06016 35120 ft 444 kts 131°
2026-04-16 10:28 42.68477 20.12473 35118 ft 444 kts 130°
2026-04-16 10:29 42.64560 20.18962 35118 ft 443 kts 131°
2026-04-16 10:29 42.60663 20.25382 35122 ft 443 kts 131°
2026-04-16 10:30 42.56748 20.31812 35121 ft 443 kts 131°
2026-04-16 10:30 42.52821 20.38245 35114 ft 444 kts 131°
2026-04-16 10:31 42.48877 20.44697 35107 ft 444 kts 131°
2026-04-16 10:31 42.44945 20.51109 35105 ft 444 kts 131°
2026-04-16 10:32 42.41016 20.57506 35103 ft 444 kts 131°
2026-04-16 10:32 42.37080 20.63898 35108 ft 444 kts 131°
2026-04-16 10:33 42.33067 20.70405 35102 ft 444 kts 131°
2026-04-16 10:33 42.29126 20.76777 35099 ft 444 kts 132°
2026-04-16 10:34 42.25174 20.83157 35101 ft 444 kts 131°
2026-04-16 10:34 42.21220 20.89527 35103 ft 444 kts 131°
2026-04-16 10:35 42.17261 20.95885 35100 ft 443 kts 132°
2026-04-16 10:35 42.12908 21.01691 35097 ft 441 kts 142°
2026-04-16 10:36 42.07948 21.06430 35095 ft 438 kts 151°
2026-04-16 10:36 42.02493 21.10010 35091 ft 436 kts 160°
2026-04-16 10:37 41.96822 21.12916 35088 ft 435 kts 161°
2026-04-16 10:37 41.91163 21.15791 35090 ft 435 kts 161°
2026-04-16 10:38 41.85460 21.18696 35094 ft 433 kts 161°
2026-04-16 10:38 41.79862 21.21544 35096 ft 433 kts 161°
2026-04-16 10:39 41.74243 21.24402 35094 ft 431 kts 161°
2026-04-16 10:39 41.68636 21.27249 35095 ft 430 kts 161°
2026-04-16 10:40 41.63079 21.30065 35093 ft 429 kts 161°
2026-04-16 10:40 41.57499 21.32888 35092 ft 428 kts 161°
2026-04-16 10:41 41.51923 21.35706 35092 ft 428 kts 161°
2026-04-16 10:41 41.46359 21.38510 35092 ft 426 kts 161°
2026-04-16 10:42 41.40863 21.41355 35092 ft 426 kts 157°
2026-04-16 10:42 41.35666 21.45243 35095 ft 428 kts 147°
2026-04-16 10:43 41.31113 21.50314 35092 ft 430 kts 136°
2026-04-16 10:43 41.27287 21.56417 35094 ft 432 kts 129°
2026-04-16 10:44 41.23732 21.62834 35092 ft 432 kts 128°
2026-04-16 10:44 41.20146 21.69305 35091 ft 432 kts 129°
2026-04-16 10:45 41.16576 21.75716 35090 ft 432 kts 129°
2026-04-16 10:45 41.13020 21.82080 35089 ft 432 kts 129°
2026-04-16 10:46 41.09465 21.88431 34838 ft 426 kts 129°
2026-04-16 10:46 41.07695 21.91585 34139 ft 425 kts 129°
2026-04-16 10:46 41.05942 21.94678 33430 ft 424 kts 129°
2026-04-16 10:47 41.04178 21.97774 32725 ft 423 kts 129°
2026-04-16 10:47 41.02411 22.00876 31929 ft 424 kts 129°
2026-04-16 10:47 41.00630 22.03997 31057 ft 427 kts 128°
2026-04-16 10:47 40.98844 22.07129 30176 ft 429 kts 128°
2026-04-16 10:48 40.97042 22.10290 29305 ft 431 kts 128°
2026-04-16 10:48 40.95266 22.13404 28584 ft 429 kts 128°
2026-04-16 10:48 40.93475 22.16543 28007 ft 424 kts 128°
2026-04-16 10:48 40.91720 22.19614 27427 ft 420 kts 128°
2026-04-16 10:49 40.89989 22.22643 26853 ft 417 kts 128°
2026-04-16 10:49 40.88212 22.25746 26243 ft 413 kts 128°
2026-04-16 10:49 40.86455 22.28813 25632 ft 410 kts 128°
2026-04-16 10:49 40.84758 22.31771 25056 ft 407 kts 128°
2026-04-16 10:50 40.83054 22.34737 24460 ft 403 kts 128°
2026-04-16 10:50 40.81370 22.37665 23925 ft 399 kts 128°
2026-04-16 10:50 40.79736 22.40506 23706 ft 386 kts 128°
2026-04-16 10:50 40.78139 22.43278 23485 ft 375 kts 128°
2026-04-16 10:51 40.76650 22.46044 23268 ft 364 kts 123°
2026-04-16 10:51 40.75308 22.48796 23077 ft 354 kts 123°
2026-04-16 10:51 40.73994 22.51520 22868 ft 343 kts 123°
2026-04-16 10:51 40.72741 22.54120 22658 ft 334 kts 123°
2026-04-16 10:52 40.71513 22.56664 22263 ft 332 kts 123°
2026-04-16 10:52 40.70250 22.59272 22050 ft 337 kts 123°
2026-04-16 10:52 40.68991 22.61869 22008 ft 335 kts 123°
2026-04-16 10:52 40.67754 22.64418 21681 ft 333 kts 123°
2026-04-16 10:53 40.66533 22.67057 21162 ft 335 kts 116°
2026-04-16 10:53 40.65938 22.70012 20656 ft 337 kts 94°
2026-04-16 10:53 40.66263 22.73044 20218 ft 337 kts 71°
2026-04-16 10:53 40.67453 22.75692 19811 ft 338 kts 49°
2026-04-16 10:54 40.69315 22.77539 19378 ft 339 kts 26°
2026-04-16 10:54 40.71594 22.78323 18946 ft 338 kts
2026-04-16 10:54 40.73871 22.77951 18326 ft 335 kts 342°
2026-04-16 10:54 40.75886 22.76473 17540 ft 334 kts 318°
2026-04-16 10:55 40.77302 22.74066 16812 ft 330 kts 295°
2026-04-16 10:55 40.77866 22.71222 16121 ft 324 kts 271°
2026-04-16 10:55 40.77536 22.68356 15417 ft 318 kts 247°
2026-04-16 10:55 40.76417 22.65893 14706 ft 312 kts 232°
2026-04-16 10:56 40.75293 22.63466 13991 ft 311 kts 249°
2026-04-16 10:56 40.74968 22.60692 13295 ft 310 kts 274°
2026-04-16 10:56 40.75548 22.57973 12569 ft 308 kts 299°
2026-04-16 10:56 40.76922 22.55844 11844 ft 305 kts 325°
2026-04-16 10:57 40.78806 22.54693 11131 ft 300 kts 351°
2026-04-16 10:57 40.80871 22.54515 10475 ft 295 kts
2026-04-16 10:57 40.82883 22.54613 9814 ft 293 kts
2026-04-16 10:57 40.84910 22.54754 9150 ft 291 kts
2026-04-16 10:58 40.86941 22.54910 8697 ft 290 kts
2026-04-16 10:58 40.88933 22.55117 8369 ft 285 kts 12°
2026-04-16 10:58 40.90739 22.56089 8013 ft 279 kts 38°
2026-04-16 10:58 40.91973 22.57977 7667 ft 273 kts 65°
2026-04-16 10:59 40.92406 22.60350 7304 ft 270 kts 91°
2026-04-16 10:59 40.91950 22.62737 6936 ft 269 kts 117°
2026-04-16 10:59 40.90885 22.64772 6590 ft 269 kts 131°
2026-04-16 10:59 40.89594 22.66512 6258 ft 268 kts 135°
2026-04-16 11:00 40.88230 22.68223 5915 ft 267 kts 135°
2026-04-16 11:00 40.86895 22.69872 5670 ft 263 kts 135°
2026-04-16 11:00 40.85572 22.71504 5514 ft 254 kts 135°
2026-04-16 11:00 40.84295 22.73078 5352 ft 246 kts 135°
2026-04-16 11:01 40.83072 22.74585 5208 ft 239 kts 135°
2026-04-16 11:01 40.81877 22.76057 5065 ft 231 kts 135°
2026-04-16 11:01 40.80718 22.77484 4833 ft 228 kts 135°
2026-04-16 11:01 40.79552 22.78919 4537 ft 228 kts 135°
2026-04-16 11:02 40.78395 22.80347 4319 ft 225 kts 135°
2026-04-16 11:02 40.77271 22.81732 4189 ft 218 kts 135°
2026-04-16 11:02 40.76174 22.83074 4046 ft 212 kts 135°
2026-04-16 11:02 40.75107 22.84380 3815 ft 210 kts 135°
2026-04-16 11:03 40.74025 22.85705 3546 ft 210 kts 135°
2026-04-16 11:03 40.73000 22.86960 3481 ft 196 kts 135°
2026-04-16 11:03 40.71067 22.89308 2992 ft 187 kts 135°
2026-04-16 11:04 40.70105 22.90471 2664 ft 186 kts 139°
2026-04-16 11:04 40.69011 22.91375 2560 ft 187 kts 153°
2026-04-16 11:04 40.67778 22.91995 2558 ft 189 kts 160°
2026-04-16 11:04 40.66518 22.92469 2551 ft 189 kts 164°
2026-04-16 11:05 40.65240 22.92887 2427 ft 186 kts 165°
2026-04-16 11:05 40.63992 22.93277 2190 ft 180 kts 165°
2026-04-16 11:05 40.62796 22.93652 1950 ft 175 kts 165°
2026-04-16 11:05 40.61633 22.94020 1707 ft 163 kts 165°
2026-04-16 11:06 40.60558 22.94362 1512 ft 154 kts 165°
2026-04-16 11:06 40.59540 22.94686 1320 ft 148 kts 165°
2026-04-16 11:06 40.58556 22.94999 1130 ft 145 kts 165°
2026-04-16 11:06 40.57562 22.95307 943 ft 145 kts 165°
2026-04-16 11:07 40.56585 22.95617 769 ft 144 kts 163°
2026-04-16 11:07 40.55622 22.95943 592 ft 144 kts 165°
2026-04-16 11:07 40.54639 22.96251 390 ft 144 kts 166°
2026-04-16 11:07 40.53669 22.96550 191 ft 143 kts 166°
2026-04-16 11:08 40.52705 22.96859 16 ft 141 kts 166°
2026-04-16 11:08 40.51915 22.97111 10 ft 76 kts 168°
2026-04-16 11:08 40.51617 22.97205 12 ft 26 kts 165°
2026-04-16 11:08 40.51527 22.97249 13 ft 10 kts 131°
2026-04-16 11:09 40.51514 22.97341 14 ft 8 kts 86°
2026-04-16 11:09 40.51533 22.97404 14 ft 6 kts 30°
2026-04-16 11:09 40.51589 22.97398 13 ft 9 kts 347°
2026-04-16 11:09 40.51661 22.97375 12 ft 11 kts 346°
2026-04-16 11:10 40.51747 22.97347 11 ft 13 kts 346°
2026-04-16 11:10 40.51843 22.97317 11 ft 14 kts 347°
2026-04-16 11:10 40.51947 22.97284 10 ft 15 kts 347°
2026-04-16 11:10 40.52056 22.97248 10 ft 16 kts 346°
2026-04-16 11:11 40.52169 22.97213 9 ft 17 kts 346°
2026-04-16 11:11 40.52287 22.97176 9 ft 17 kts 347°
2026-04-16 11:11 40.52365 22.97169 9 ft 8 kts 36°
2026-04-16 11:11 40.52384 22.97235 9 ft 8 kts 76°
2026-04-16 11:12 40.52399 22.97313 9 ft 8 kts 80°
2026-04-16 11:12 40.52374 22.97382 10 ft 9 kts 134°
2026-04-16 11:12 40.52326 22.97445 10 ft 7 kts 135°
2026-04-16 11:12 40.52311 22.97467 10 ft 2 kts 111°
2026-04-16 11:13 40.52320 22.97496 11 ft 4 kts 56°
2026-04-16 11:13 40.52336 22.97520 11 ft 2 kts 45°
2026-04-16 11:13 40.52343 22.97530 11 ft 0 kts 45°